[[{"header":{"parameterUnit":"m.s-1","parameterCategory":1,"la1":30.2991,"la2":30.254,"lo1":-89.0895,"lo2":-89.0444,"dy":0.0017,"dx":0.0017,"nx":28,"ny":28,"refTime":"2023-10-16T03:00:00:Z","depth":0,"parameterNumber":2,"parameterNumberName":"U-component_of_WINDS"},"data":[0,0,0,0,0,0,0,0,0,0,0,0,0,0,0,0,0,0,0,0,0,0,0,0,0,0,0,0,0,0,0,0,0,0,0,0,0,0,0,0,0,0,0,0,0,0,0,0,0,0,0,0,0,0,0,0,0,0,1.7805,1.7805,0,1.784,1.784,1.784,1.7816,1.7815,1.7814,1.7813,1.7847,1.7849,1.785,0,0,0,0,0,0,0,0,0,0,0,0,0,1.7714,1.7715,1.7805,1.7805,1.7805,1.7839,1.784,1.784,1.7817,1.7815,1.7814,1.7813,1.7846,1.7848,1.7851,0,0,0,0,0,0,0,0,0,0,0,0,0,1.7751,1.7716,1.7804,1.7798,1.7797,1.7839,1.784,1.7841,1.7817,1.7815,1.7814,1.7812,1.7845,1.7848,1.7851,1.7901,0,0,1.786,1.7861,0,0,0,0,0,0,0,0,1.7749,1.7755,1.7798,1.7798,1.7798,1.7822,1.782,1.7861,1.7817,1.7809,1.7813,1.7811,1.784,1.7843,1.7853,1.7902,1.7904,1.786,1.7862,1.7863,1.7864,0,0,0,0,0,0,0,1.7747,1.7753,1.7818,1.7799,1.7799,1.7792,1.7795,1.7828,1.7833,1.781,1.7808,1.7813,1.7839,1.785,1.7853,1.7904,1.786,1.7862,1.7864,1.7865,1.7993,1.7995,0,0,0,0,0,0,1.7745,1.7751,1.7817,1.7819,1.7769,1.7795,1.7799,1.7816,1.7833,1.7834,1.7814,1.7812,1.7846,1.785,1.7855,1.7912,1.7863,1.7865,1.7867,1.7992,1.7994,1.7996,0,0,0,0,0,0,1.7743,1.7751,1.7816,1.7785,1.7792,1.7798,1.7817,1.7817,1.7828,1.7836,1.7836,1.7825,1.7845,1.7851,1.7889,1.7912,1.7867,1.7869,1.799,1.7992,1.7995,1.8028,0,0,0,0,0,0,1.7741,1.7751,1.777,1.7785,1.7794,1.7851,1.7819,1.7819,1.7834,1.7831,1.7846,1.7847,1.7844,1.7885,1.7892,1.7916,1.7872,1.7988,1.7991,1.7994,1.8024,1.8031,1.8037,0,0,0,0,0,1.7737,1.7778,1.7772,1.778,1.7819,1.7852,1.7857,1.7854,1.7836,1.7855,1.7859,1.7846,1.7909,1.7889,1.7897,1.7922,1.7986,1.799,1.7994,1.8022,1.803,1.8037,0,0,0,0,0,0,1.7766,1.778,1.7773,1.782,1.7835,1.7848,1.7872,1.7863,1.7883,1.7879,1.7874,1.7877,1.7917,1.7923,1.79,1.7969,1.7945,1.795,1.7963,1.7971,1.7977,1.7973,1.7874,0,0,0,0,0,1.7778,1.7804,1.7815,1.7856,1.7864,1.7867,1.7881,1.7877,1.7892,1.7898,1.7906,1.792,1.7942,1.7957,1.7979,1.8026,1.8027,1.8047,1.8053,1.8058,1.8062,1.8084,1.8092,1.8008,1.8008,1.8008,0,0,1.7802,1.7813,1.783,1.7862,1.7873,1.7898,1.7872,1.7901,1.792,1.7902,1.7938,1.7944,1.796,1.8002,1.8021,1.8009,1.8086,1.8063,1.8067,1.8068,1.8089,1.8097,1.8104,1.8011,1.801,1.801,0,0,1.7859,1.7872,1.7905,1.7917,1.7934,1.7936,1.7944,1.7958,1.7962,1.7998,1.7985,1.8007,1.8047,1.8057,1.8068,1.8128,1.8116,1.8135,1.8166,1.8188,1.8195,1.8201,1.8219,1.8227,1.814,1.814,1.814,0,1.7887,1.7927,1.7924,1.7953,1.7966,1.7953,1.7985,1.7997,1.802,1.8028,1.8015,1.8063,1.8073,1.8116,1.8131,1.8141,1.8148,1.8133,1.8195,1.82,1.8206,1.8223,1.8231,1.8142,1.8142,1.8142,1.8141,0,1.7958,1.7986,1.8011,1.8034,1.805,1.8081,1.8082,1.8098,1.8093,1.8096,1.8132,1.8143,1.8165,1.8176,1.8171,1.8218,1.8209,1.8195,1.817,1.8216,1.8232,1.8239,1.8145,1.8144,1.8144,1.8143,0,0,1.8034,1.8054,1.8063,1.8072,1.8089,1.811,1.814,1.8162,1.8175,1.8192,1.8215,1.8249,1.8235,1.8248,1.8244,1.8264,1.8307,1.8247,1.8247,1.8256,1.8356,1.8364,1.8372,1.83,1.8302,1.8303,1.8354,0,1.8089,1.8142,1.814,1.8188,1.8212,1.8199,1.8224,1.8237,1.824,1.826,1.8263,1.8286,1.8268,1.8275,1.8294,1.8298,1.8327,1.8295,1.832,1.832,1.8313,1.8382,1.8391,1.8439,1.8361,1.8362,1.8362,0,1.8162,1.818,1.8231,1.8243,1.8253,1.8276,1.8295,1.8315,1.8328,1.8329,1.8342,1.8335,1.8363,1.8339,1.8377,1.8355,1.8365,1.8368,1.837,1.837,1.8342,1.8381,1.8454,1.846,1.8373,1.8372,1.8372,0,1.8208,1.8245,1.828,1.8288,1.8304,1.832,1.8327,1.834,1.8352,1.8369,1.8377,1.8397,1.8407,1.8422,1.842,1.8403,1.8457,1.8434,1.8457,1.8457,1.8467,1.8466,1.854,1.8478,1.8478,1.8478,1.8478,0,1.8269,1.8299,1.83,1.8321,1.8355,1.8352,1.8384,1.839,1.8401,1.8421,1.8412,1.8431,1.8428,1.8447,1.8446,1.8476,1.8481,1.8481,1.848,1.848,1.848,1.8485,1.8481,1.848,1.848,1.8479,1.8479,0,1.8325,1.8327,1.8363,1.8375,1.8379,1.8402,1.8412,1.8431,1.8433,1.8459,1.8465,1.8469,1.849,1.849,1.8516,1.8514,1.855,1.8547,1.8545,1.8544,1.8566,1.8563,1.8644,1.8653,1.8588,1.8589,1.8589,0,1.8362,1.8385,1.84,1.8413,1.8421,1.8443,1.8455,1.8453,1.8467,1.8483,1.85,1.8521,1.8537,1.8572,1.8576,1.8595,1.859,1.8617,1.8592,1.8591,1.8587,1.8584,1.8585,1.8621,1.8622,1.8622,1.8623,0,1.8428,1.8427,1.8447,1.8466,1.8481,1.8497,1.851,1.8522,1.8521,1.8536,1.8558,1.8571,1.8596,1.8616,1.8634,1.864,1.863,1.8631,1.8637,1.8636,1.8633,1.8632,1.8556,1.8628,1.8628,1.8627,1.8627,1.8627,1.8474,1.8493,1.8505,1.8526,1.8536,1.8549,1.8567,1.8572,1.859,1.861,1.8608,1.8632,1.8643,1.8666,1.8674,1.8692,1.8682,1.8691,1.8693,1.8695,1.8696,1.8633,1.8695,1.8695,1.8695,1.8695,1.8695,0,1.8536,1.8543,1.8563,1.8582,1.8598,1.8589,1.8604,1.8617,1.8639,1.8651,1.8667,1.8691,1.871,1.8716,1.8734,1.8747,1.8743,1.8751,1.8749,1.875,1.8705,1.8696,1.8754,1.8754,1.8754,1.8754,1.8754,1.8754,1.857,1.8601,1.8602,1.8637,1.8644,1.8667,1.8676,1.8687,1.8696,1.8724,1.874,1.8744,1.8752,1.8771,1.8787,1.8788,1.8794,1.8804,1.8803,1.876,1.8754,1.8748,1.874,1.8806,1.8806,1.8846,1.8847,1.8847]},{"header":{"parameterUnit":"m.s-1","parameterCategory":1,"la1":30.2991,"la2":30.254,"lo1":-89.0895,"lo2":-89.0444,"dy":0.0017,"dx":0.0017,"nx":28,"ny":28,"refTime":"2023-10-16T03:00:00:Z","depth":0,"parameterNumber":3,"parameterNumberName":"V-component_of_WINDS"},"data":[0,0,0,0,0,0,0,0,0,0,0,0,0,0,0,0,0,0,0,0,0,0,0,0,0,0,0,0,0,0,0,0,0,0,0,0,0,0,0,0,0,0,0,0,0,0,0,0,0,0,0,0,0,0,0,0,0,0,2.0121,2.0121,0,2.0094,2.0094,2.0093,2.0053,2.0052,2.0052,2.0051,2.0022,2.0022,2.0022,0,0,0,0,0,0,0,0,0,0,0,0,0,2.0135,2.0135,2.0121,2.0121,2.012,2.0094,2.0094,2.0093,2.0053,2.0052,2.0052,2.0051,2.0022,2.0022,2.0022,0,0,0,0,0,0,0,0,0,0,0,0,0,2.0121,2.0135,2.0121,2.0097,2.0095,2.0094,2.0094,2.0093,2.0053,2.0052,2.0051,2.005,2.0022,2.0022,2.0022,2.0042,0,0,2.0022,2.0021,0,0,0,0,0,0,0,0,2.0122,2.012,2.0101,2.0099,2.0096,2.0076,2.0088,2.0076,2.0054,2.0069,2.0051,2.005,2.0041,2.0039,2.0036,2.0041,2.0039,2.0022,2.0021,2.0021,2.0021,0,0,0,0,0,0,0,2.0123,2.0121,2.011,2.0101,2.0098,2.0087,2.0084,2.0086,2.0061,2.0068,2.0065,2.0062,2.0039,2.0037,2.0035,2.0039,2.0022,2.0021,2.0021,2.0021,2.0055,2.0056,0,0,0,0,0,0,2.0127,2.0122,2.0111,2.0109,2.0107,2.0088,2.0084,2.0083,2.0061,2.0057,2.0063,2.006,2.0037,2.0036,2.0034,2.0054,2.0021,2.0021,2.0021,2.0054,2.0056,2.0057,0,0,0,0,0,0,2.0128,2.0127,2.0112,2.0115,2.0112,2.0088,2.0088,2.0083,2.0081,2.0058,2.0053,2.0065,2.0037,2.0034,2.004,2.0053,2.0021,2.0021,2.0053,2.0055,2.0056,2.0096,0,0,0,0,0,0,2.0129,2.0127,2.0135,2.0115,2.0112,2.0119,2.0089,2.0084,2.0081,2.0077,2.0058,2.0054,2.0036,2.004,2.004,2.0052,2.0021,2.0052,2.0054,2.0056,2.0093,2.0098,2.0103,0,0,0,0,0,2.0129,2.0148,2.0136,2.0135,2.0122,2.012,2.0118,2.0097,2.0082,2.0089,2.0074,2.0055,2.0052,2.0041,2.004,2.0053,2.0051,2.0053,2.0056,2.0091,2.0097,2.0103,0,0,0,0,0,0,2.017,2.0145,2.0131,2.0144,2.0135,2.0113,2.0122,2.0105,2.0099,2.0096,2.0069,2.0065,2.0073,2.0064,2.0052,2.0069,2.0048,2.005,2.0075,2.0081,2.0086,2.0088,2.0021,0,0,0,0,0,2.0181,2.0182,2.0159,2.0173,2.0169,2.0146,2.0145,2.0129,2.0118,2.0113,2.0099,2.0088,2.0084,2.0082,2.0078,2.0092,2.0086,2.0099,2.0104,2.0108,2.011,2.0114,2.012,2.0064,2.0064,2.0064,0,0,2.0202,2.0189,2.0191,2.0181,2.0171,2.0172,2.0143,2.0146,2.0145,2.0114,2.0117,2.0106,2.0092,2.0101,2.0104,2.0093,2.0124,2.0111,2.0115,2.0114,2.0117,2.0123,2.0127,2.0066,2.0066,2.0065,0,0,2.0242,2.0232,2.0242,2.0232,2.0218,2.0203,2.0205,2.0186,2.0177,2.0181,2.0156,2.0155,2.015,2.0141,2.0135,2.0169,2.015,2.0168,2.0193,2.0198,2.0202,2.0206,2.0216,2.022,2.017,2.017,2.0171,0,2.027,2.0271,2.0248,2.0252,2.0247,2.0218,2.0226,2.0219,2.0204,2.0201,2.0189,2.018,2.0169,2.0174,2.0182,2.0179,2.0179,2.017,2.0203,2.0207,2.021,2.0219,2.0224,2.0173,2.0172,2.0172,2.0172,0,2.0306,2.0307,2.0316,2.0302,2.0298,2.0304,2.0281,2.028,2.0264,2.025,2.0252,2.0238,2.0229,2.0229,2.0214,2.0231,2.0225,2.0209,2.0186,2.0218,2.0226,2.023,2.0176,2.0175,2.0174,2.0174,0,0,2.0371,2.0343,2.0347,2.0339,2.0321,2.032,2.0324,2.0315,2.0314,2.0305,2.0306,2.0301,2.0285,2.0279,2.0263,2.0267,2.0292,2.0249,2.0248,2.0256,2.0308,2.0319,2.0324,2.0279,2.028,2.028,2.0308,0,2.0405,2.0411,2.039,2.04,2.0399,2.0371,2.0374,2.0362,2.0349,2.0345,2.0329,2.0326,2.0306,2.0302,2.0305,2.0288,2.0301,2.0286,2.0279,2.0279,2.0282,2.0328,2.0341,2.0368,2.0311,2.0312,2.0312,0,2.0447,2.0439,2.0449,2.0429,2.0427,2.0431,2.042,2.0417,2.0403,2.0392,2.0384,2.0365,2.0365,2.0345,2.0344,2.0334,2.033,2.0321,2.0321,2.0319,2.0297,2.0326,2.0376,2.038,2.0318,2.0317,2.0317,0,2.0491,2.0483,2.0487,2.0482,2.0459,2.0461,2.0451,2.0436,2.0431,2.0421,2.0418,2.0408,2.0403,2.0395,2.0373,2.0361,2.0374,2.0352,2.0364,2.0364,2.0367,2.0367,2.0416,2.0367,2.0367,2.0367,2.0367,0,2.0531,2.0538,2.0507,2.0509,2.0516,2.0491,2.0497,2.0485,2.0471,2.0469,2.0444,2.0443,2.0415,2.041,2.0393,2.0393,2.0392,2.0382,2.0377,2.0383,2.0384,2.0379,2.0376,2.0368,2.0368,2.0367,2.0367,0,2.0581,2.0561,2.0563,2.0541,2.0535,2.054,2.052,2.0521,2.0505,2.0504,2.0502,2.0477,2.047,2.0447,2.0434,2.0422,2.0428,2.042,2.0433,2.043,2.0442,2.044,2.0488,2.0492,2.0442,2.0442,2.0443,0,2.0608,2.0612,2.059,2.0587,2.0578,2.0575,2.057,2.0545,2.054,2.0523,2.0525,2.0516,2.0508,2.0498,2.0478,2.0467,2.0457,2.0475,2.0456,2.0461,2.0455,2.0455,2.0454,2.0479,2.0479,2.048,2.048,0,2.0656,2.0645,2.064,2.063,2.0624,2.0615,2.0605,2.0604,2.0576,2.0572,2.0564,2.0558,2.0544,2.0535,2.0521,2.0509,2.0489,2.0487,2.0488,2.0494,2.0501,2.0496,2.0443,2.0485,2.0485,2.0485,2.0484,2.0484,2.0694,2.0696,2.068,2.0674,2.0663,2.0653,2.0652,2.0636,2.063,2.0617,2.0602,2.0596,2.0579,2.0558,2.0548,2.0542,2.0531,2.0535,2.0535,2.0536,2.0538,2.0503,2.0539,2.0539,2.0539,2.0539,2.0539,0,2.074,2.0728,2.0722,2.0708,2.0702,2.0685,2.0672,2.0668,2.0663,2.0649,2.0641,2.0631,2.0622,2.0601,2.0588,2.0587,2.0578,2.0585,2.0584,2.0581,2.0549,2.0548,2.0592,2.0592,2.0592,2.0592,2.0592,2.0592,2.0763,2.0765,2.0752,2.0747,2.0735,2.0729,2.0722,2.0713,2.0701,2.0692,2.0684,2.067,2.0653,2.0639,2.0628,2.0622,2.0618,2.0628,2.0619,2.0589,2.0584,2.0579,2.0577,2.0628,2.0628,2.0651,2.0651,2.0651]}]]